Location: Newark
(50.0306°N, 2.3272°E)
Time: 11:24:27
(UTC+00:00)

A-11 Canister half - Pass Details

Date: 16 December 2019
Orbit: 1525 x 1684 km, 47.3° (Epoch: 19 January)

Event Time Altitude Azimuth Distance (km) Brightness Sun altitude
Rises 04:53:37 0° 233° (SW) 4,891 - -25.9°
Reaches altitude 10° 04:56:48 10° 230° (SW) 3,918 - -25.4°
Exits shadow 04:58:57 19° 226° (SW) 3,291 10.4 -25.1°
Maximum altitude 05:06:35 58° 154° (SSE) 1,910 9.6 -23.8°
Drops below altitude 10° 05:16:26 10° 80° (E) 3,942 12.1 -22.3°
Sets 05:19:39 0° 76° (ENE) 4,921 12.8 -21.8°
